Reflectivity
-20 -20 -20 -20 -20 -20 -20 -20 -20 -20 -20 -20 -20 -20 -20 -20 -20 -20 -20 -20 -20 -20 -20 -20 -20 -20 -20 -20 -20 -20 -20 -20 -20 -20 -20 -20 -20 -20 -20 -20 -20 -20 -20 -20
-20 -20 -20 -20 -20 -20 -20 -20 -20 -20 -20 -20 -20 -20 -20 -20 -20 -20 -20 -20 -20 -20 -20 -20 -20 -20 -20 -20 -20 -20 -20 -20 -20 -20 -20 -20 -20 -20 -20 -20 -20 -20 -20 -20
-20 -20 -20 -20 -20 -20 -20 -20 -20 -20 -20 -20 -20 -20 -20 -20 -20 -20 -20 -20 -20 -20 -20 -20 -20 -13 -17 -20 -20 -20 -20 -20 -20 -20 -20 -20 -20 -20 -20 -20 -20 -20 -20 -20
-20 -20 -20 -20 -20 -20 -20 -20 -20 -20 -20 -20 -20 -20 -20 -20 -20 -1 -12 -20 -20 -20 -20 -20 -15 3 -4 -10 -9 -15 -9 -20 -20 -20 -20 -20 -20 -20 -20 -20 -20 -20 -20 -20
-20 -20 -20 -20 -20 -20 -20 -20 -20 -20 -20 -20 -20 -19 -20 -20 -20 14 12 9 21 6 -20 -20 -20 -9 8 5 -20 -20 -20 -20 -20 -20 -20 -20 -20 -20 -20 -20 -20 -20 -20 -20
-20 -20 -20 -20 -20 -20 -20 -20 -20 -2 -7 -17 -20 -20 -6 -5 -11 18 20 17 15 5 -20 -10 -9 -20 4 -1 -20 -20 -20 -20 -20 -20 -20 -20 -20 -20 -20 -20 -20 -20 -20 -20
-20 -20 -20 -20 -20 -20 -20 -20 -20 -20 9 -16 -20 -20 -20 -20 -16 -16 -20 -20 2 1 -15 -20 -20 -20 -3 -16 -20 -20 -20 -20 -20 -20 -20 -20 -20 -20 -20 -20 -20 -20 -20 -20
-20 -20 -20 -20 -20 -20 -20 -12 -13 3 -20 -20 -20 -20 -20 -20 -20 -20 -20 -20 -20 -20 -20 -15 -20 -19 -1 -20 -20 -20 -17 -20 -20 -20 -20 -20 -20 -20 -20 -20 -20 -20 -20 -20
-17 -20 -20 -20 -20 -20 -20 -4 -19 8 -17 -20 -20 -20 -20 -20 10 -2 7 -10 -20 -20 -20 -20 -20 -20 -18 -7 -20 -10 -19 -20 -20 -20 -20 -20 -20 -20 -20 -20 -20 -20 -20 -20
15 -17 -20 -20 -20 -20 -8 12 30 23 7 8 -16 -20 -20 -20 -13 -20 -20 2 28 18 -10 3 5 -0 -14 -20 -20 -20 -20 -20 -20 -20 -20 -20 -20 -20 -20 -20 -20 -20 -20 -20
-11 -2 -20 -20 -20 -20 -18 3 22 29 27 21 14 -20 -20 -12 11 14 -12 5 -4 15 -11 -20 -20 -20 -20 -20 -20 -20 -20 -20 -20 -20 -20 -20 -20 -20 -20 -20 -20 -20 -20 -20
22 28 -16 -17 -17 12 25 31 12 28 26 24 25 -13 -20 -20 13 25 -6 3 16 29 26 -3 -16 -20 -20 -20 -20 -20 -20 -20 -20 -20 -20 -15 -4 -20 -20 -20 -20 -20 -20 -20
5 20 6 -16 -20 -3 24 31 29 12 26 14 -5 -20 -20 -20 -16 -20 -20 -20 -20 -20 2 -14 -20 -20 -20 -20 -20 -20 -20 -20 -20 -20 -13 10 -20 -16 -19 -20 -20 -20 -20 -20
-14 2 15 -5 -20 -20 -20 -18 -3 16 9 -6 11 9 -20 -20 -18 17 0 14 -2 4 6 -10 -14 -20 -20 -20 -20 -20 -20 -20 -20 -19 -16 12 11 -8 -20 -20 -20 -20 -20 -20
20 14 6 -6 -20 -8 2 -20 -18 -19 -20 -20 -20 -20 -17 -18 -19 9 15 16 17 9 9 -12 -20 -20 -20 -20 -20 -20 -20 -20 -20 -20 9 9 25 9 -20 -20 -20 -20 -20 -20
5 -1 10 8 -0 10 -4 -12 9 -16 -20 -18 7 -2 -14 15 12 5 1 9 -1 -4 -20 -20 -20 -20 -20 -20 -20 -20 -20 -20 -20 -19 25 23 8 -1 -20 -20 -20 -20 -20 -20
-1 -20 3 -9 -15 1 6 -20 -20 -20 -20 -20 -6 -8 -1 -8 -20 -13 6 13 2 -12 -6 -20 -20 -20 -18 -20 -20 -17 -18 -20 -20 21 28 25 6 -17 -20 -20 -20 -20 -20 -20
10 -1 -20 -7 -20 -10 -20 -20 -20 -20 -20 -20 -20 -10 -20 -20 -20 -20 -20 -20 -19 -12 -6 -0 -15 3 1 -12 -20 2 -17 -20 3 32 25 7 -7 -19 -20 -20 -20 -20 -20 -20
-20 2 -14 9 -20 -20 -20 -20 -20 2 -20 -20 -20 -20 -20 -20 -20 -20 -20 -20 -20 -20 23 22 22 13 6 18 14 14 18 -14 28 13 8 17 7 -1 -20 -20 -20 -20 -20 -20
-20 -20 -18 -20 13 -8 -20 -20 -20 -17 -20 -20 -20 -20 -20 -20 -20 -20 -20 -20 -20 -20 -20 -20 -20 15 40 15 12 21 40 36 22 6 5 2 2 -8 -20 -20 -20 -20 -20 -20
-7 2 3 1 13 -19 -20 -20 -20 8 -13 0 -10 -20 -20 -8 -20 -20 -20 -20 -20 -20 -20 -18 -7 22 20 11 12 30 40 26 17 6 4 -13 -17 -14 -20 -20 -20 -20 -20 -20
-20 -3 18 6 17 19 -6 -10 19 2 -20 24 -16 -20 -20 -20 -20 -20 -20 -20 -20 -20 -19 -2 -2 23 22 8 32 36 36 9 3 -14 -14 -4 -4 -20 -20 -20 -20 -20 -20 -20
4 -16 -18 -20 -17 10 -14 22 18 12 1 -17 -19 -20 -20 -20 -20 -20 -20 -20 -20 -10 18 -20 2 -10 8 30 30 31 1 -18 -20 -20 -20 -13 -20 -20 -20 -20 -20 -20 -20 -20
-20 -20 -20 -20 -20 -20 -17 18 3 0 -20 -20 -20 -20 -20 -20 -20 -20 -16 -19 -8 -4 0 2 -8 -17 -7 28 16 10 9 -6 -12 -9 -20 -20 -20 -20 -20 -20 -20 -20 -20 -20
-20 -20 -20 -20 -20 -0 39 23 18 -20 -20 -20 -20 -20 -20 -20 -20 -19 5 -7 7 31 -15 -6 -13 -7 -14 -20 -20 -3 -1 -11 -20 -20 -20 -20 -20 -20 -20 -20 -20 -20 -20 -20
-20 -20 -20 -20 -4 29 26 26 -4 -20 -20 -20 -20 -20 -20 -20 -20 -20 -20 -14 26 22 18 -20 -19 -19 -20 -20 -20 -20 -20 -20 -20 -20 -20 -20 -20 -20 -20 -20 -20 -20 -20 -20
Wind_Speed
7 7 14 14 14 15 17 18 19 13 8 7 7 9 12 12 7 10 13 15 18 21 15 22 20 20 20 18 16 15 12 9 6 4 5 4 5 5 4 5 6 6 5 6
9 20 15 15 19 19 19 18 17 10 9 5 7 15 9 8 7 13 16 12 19 17 21 22 21 17 19 19 17 15 14 10 7 4 4 4 4 4 5 4 5 6 6 6
21 10 10 19 22 21 23 20 17 14 9 8 7 23 8 6 9 10 14 18 18 24 25 22 21 21 20 20 18 17 15 14 8 8 8 5 6 4 4 4 4 4 6 6
20 18 22 23 26 15 27 17 21 15 4 8 7 19 14 6 13 10 14 17 16 21 21 22 21 22 23 20 17 17 15 12 8 9 9 11 5 5 4 5 4 5 6 6
29 5 19 22 25 19 28 6 7 6 6 7 13 6 17 1 11 9 8 13 16 22 25 25 23 22 20 20 18 18 15 12 8 7 8 6 6 5 5 6 8 7 5 6
32 18 16 5 10 8 10 12 4 1 5 5 15 6 22 7 14 16 17 18 23 28 26 22 20 22 19 16 16 15 16 10 9 7 9 10 12 9 7 5 5 5 4 4
18 28 21 16 18 21 6 1 2 1 5 14 7 9 23 2 11 12 6 5 19 22 22 22 23 20 19 18 15 15 16 11 9 8 8 9 9 9 9 7 6 8 4 3
8 8 19 16 27 17 12 8 7 7 7 10 11 12 12 4 9 6 7 7 16 20 19 22 23 20 19 19 17 17 17 14 11 8 7 7 8 6 5 6 6 6 5 5
4 9 2 5 12 19 17 12 11 7 3 3 5 6 7 8 9 12 9 9 8 14 16 18 17 18 18 19 18 18 17 15 12 9 8 8 7 9 8 9 9 6 6 5
4 8 6 6 7 2 3 2 5 3 5 7 5 5 5 7 6 8 8 5 9 12 13 14 16 18 16 15 15 16 18 17 12 10 7 6 9 8 8 9 8 8 6 7
3 4 6 6 3 0 5 3 5 1 3 2 2 6 6 6 3 7 0 6 1 15 15 18 19 17 18 17 17 16 17 16 15 12 8 9 8 8 9 9 8 7 7 8
5 1 5 11 10 8 6 2 3 4 3 4 3 8 12 17 12 11 9 8 5 1 11 18 18 15 20 17 16 16 15 15 14 11 10 10 9 9 10 9 7 7 7 7
3 3 4 7 4 6 11 3 3 3 3 5 3 6 16 15 13 12 11 3 2 4 8 7 9 15 16 17 16 15 15 15 13 11 11 10 9 9 9 8 7 7 7 7
5 3 2 4 1 3 3 5 5 4 3 3 7 14 22 19 18 14 11 4 7 7 13 13 12 13 15 16 16 17 17 17 16 14 12 10 10 9 9 8 8 9 8 9
8 8 11 14 18 12 13 13 12 14 11 9 18 15 19 20 19 17 13 12 12 11 12 17 15 16 15 16 15 16 17 16 18 14 14 11 10 11 9 9 8 7 7 6
11 5 9 9 16 14 14 12 18 17 17 17 17 20 17 20 20 18 17 16 13 15 17 17 17 18 17 18 17 17 18 17 17 16 16 14 12 12 9 9 9 9 7 5
9 4 3 7 10 12 8 19 18 19 16 16 17 19 17 17 16 13 7 8 11 14 20 20 21 22 20 21 20 19 18 18 17 16 14 15 13 12 11 10 10 10 8 7
6 11 4 4 2 3 9 9 7 12 16 14 13 5 4 6 8 5 5 6 8 13 12 21 20 19 19 19 19 19 18 17 17 17 17 16 14 13 12 12 11 10 9 8
10 6 3 3 6 9 17 12 6 6 8 4 4 5 5 8 5 3 8 4 5 5 3 4 10 14 18 20 18 18 18 17 17 19 18 17 15 14 14 13 12 10 10 8
16 12 6 2 4 7 5 6 6 5 6 1 0 3 5 5 3 5 7 6 4 7 2 7 13 17 16 18 20 19 16 18 19 18 18 17 16 15 15 13 13 11 10 8
5 4 8 10 9 9 3 4 1 4 3 7 4 7 1 2 1 6 9 6 2 1 7 7 13 16 17 16 15 15 17 18 16 17 18 17 15 15 13 12 8 9 9 10
1 3 3 3 5 8 6 2 4 5 6 5 4 3 4 4 7 8 15 8 6 6 10 15 15 12 13 16 16 16 18 16 16 17 18 17 14 13 11 12 8 11 12 11
2 3 2 2 4 5 4 9 9 2 3 2 1 3 4 6 5 5 9 8 9 8 9 10 11 14 15 17 16 16 15 17 16 17 16 15 13 12 11 11 11 9 10 10
3 3 3 3 3 1 7 7 11 5 5 5 5 6 6 6 2 5 10 7 6 2 10 9 11 12 13 15 16 14 16 16 17 16 15 14 13 12 10 9 10 9 9 8
5 4 3 6 8 9 10 15 11 8 8 6 5 6 8 6 5 4 3 8 7 6 8 10 11 11 13 14 12 14 16 16 15 14 14 14 11 13 10 8 9 9 8 10
3 5 3 4 2 2 16 12 4 1 5 9 8 5 6 5 7 4 4 7 8 10 1 10 11 12 11 12 12 15 16 16 16 15 13 11 11 10 9 7 5 11 15 16
Wind_Direction
269 211 221 224 232 240 247 257 263 262 255 294 279 290 231 207 185 161 168 174 178 181 164 151 146 147 143 145 142 143 139 147 136 140 147 135 134 121 100 92 90 84 63 65
241 246 242 230 239 250 259 265 269 282 294 290 321 294 260 239 200 181 189 182 181 167 153 154 150 143 148 148 145 141 144 147 160 155 169 144 137 124 128 115 100 95 79 65
238 228 242 242 248 255 256 256 266 268 298 280 333 290 281 267 240 203 193 193 176 168 162 156 153 148 146 149 150 148 150 161 176 151 131 109 104 102 112 112 102 94 87 73
259 243 251 257 259 258 253 244 246 254 293 269 182 276 263 253 248 222 202 197 176 172 161 156 151 151 154 153 147 147 155 166 156 152 126 142 141 153 137 142 125 112 101 83
235 257 215 235 246 238 262 236 226 247 249 331 251 266 284 294 294 282 274 245 180 163 164 166 160 152 152 149 149 150 152 138 146 133 143 136 133 125 135 121 131 121 99 96
255 256 253 252 288 278 282 247 233 281 66 283 244 214 276 229 252 247 253 257 176 176 166 153 147 145 150 148 147 149 139 139 136 140 139 146 141 141 134 138 127 134 122 98
260 255 257 260 274 276 253 123 246 273 185 241 134 204 232 233 245 242 235 228 175 158 153 147 150 153 154 154 142 142 138 133 122 131 129 139 143 138 145 145 148 132 122 99
211 296 206 208 217 223 215 191 189 191 200 251 225 233 240 238 240 121 75 84 121 136 150 157 161 159 152 151 146 142 143 140 133 128 125 118 117 123 125 127 116 113 123 117
261 260 337 141 240 206 232 218 235 259 330 50 251 297 3 58 56 42 37 99 142 151 156 155 158 158 150 154 154 147 143 136 137 141 139 134 128 122 122 116 111 118 120 125
20 310 333 346 14 13 165 349 19 47 205 223 275 268 218 38 65 62 27 327 127 154 146 151 159 163 155 151 148 140 142 143 135 136 132 130 129 131 126 114 116 114 119 110
9 121 292 9 226 225 352 24 81 238 226 233 216 265 146 105 166 135 318 276 126 144 152 166 172 165 149 152 150 144 141 137 142 145 141 135 138 130 116 118 123 126 121 117
16 307 270 249 281 335 23 78 218 228 193 199 182 263 32 13 36 52 14 339 344 53 174 166 161 149 157 153 144 142 145 141 145 142 141 137 132 128 123 122 124 121 119 118
27 71 291 273 220 52 75 84 26 344 223 213 206 262 353 348 356 3 340 354 42 74 108 126 125 149 155 156 149 143 145 141 141 131 134 137 130 130 129 127 126 118 105 112
96 138 252 269 286 297 274 267 230 155 230 348 267 307 309 307 305 297 289 227 233 182 157 151 146 155 159 159 150 147 146 146 141 140 138 138 130 129 119 118 104 108 112 108
151 205 223 247 260 261 267 273 267 236 221 221 273 255 265 273 280 278 275 254 205 209 184 170 160 162 160 157 151 148 146 146 142 141 134 130 125 120 118 111 108 108 112 120
191 229 192 237 253 258 265 274 267 268 260 264 268 272 257 265 272 270 257 256 221 205 191 181 164 165 164 164 159 154 151 151 145 143 138 143 132 130 131 129 127 128 128 130
197 189 180 257 255 268 255 240 244 254 263 265 267 262 274 279 280 286 43 26 345 242 193 181 172 171 170 171 163 160 155 151 146 140 146 140 145 143 145 147 148 148 154 153
169 186 167 240 16 243 250 249 238 250 252 262 276 45 36 322 302 78 43 28 353 11 229 194 176 171 167 165 160 154 157 153 152 157 156 149 156 153 159 162 167 157 168 164
218 179 188 187 240 290 293 285 274 290 289 30 8 25 338 322 343 10 4 40 324 326 185 238 196 171 159 162 156 154 158 158 165 167 160 157 160 161 167 172 169 168 169 171
210 211 172 182 221 238 243 93 79 167 257 319 67 287 287 333 21 274 313 315 321 298 348 111 145 151 149 160 155 155 169 171 179 166 155 158 161 165 172 171 171 173 168 163
157 96 217 234 227 263 33 0 175 227 285 285 221 256 0 1 295 279 313 303 296 255 89 116 146 149 152 148 148 159 170 188 170 156 152 157 165 166 165 166 164 154 138 126
235 180 190 197 240 230 360 354 201 199 209 247 332 38 21 343 320 326 316 295 270 152 163 158 152 150 150 156 154 173 188 170 161 152 154 160 162 164 163 158 137 139 134 125
35 84 226 196 224 171 171 202 285 281 129 284 250 315 352 320 328 331 340 316 324 182 175 166 156 160 159 163 168 182 167 161 153 149 154 159 156 157 155 143 141 133 138 138
353 138 179 12 19 323 255 209 246 216 186 217 193 218 247 261 26 358 9 350 18 122 143 150 147 148 148 158 179 164 158 152 150 151 152 155 156 147 147 142 144 146 146 151
193 310 274 270 300 323 279 235 226 221 206 218 227 220 241 244 102 69 21 43 1 265 169 150 145 150 156 165 160 151 153 150 152 152 156 160 153 152 150 148 152 156 162 167
206 229 174 245 242 353 292 244 197 32 203 215 221 258 290 130 151 133 86 82 23 4 57 137 142 145 155 158 150 152 158 156 155 159 164 162 153 152 153 131 84 151 164 175